Date,TemperatureHighF,TemperatureAvgF,TemperatureLowF,DewpointHighF,DewpointAvgF,DewpointLowF,HumidityHigh,HumidityAvg,HumidityLow,PressureMaxIn,PressureMinIn,WindSpeedMaxMPH,WindSpeedAvgMPH,GustSpeedMaxMPH,PrecipitationSumIn
2013-1-1,17,9,3,12,5,0,92,85,69,0.00,40.00,9,3,19,0.00
2013-1-2,23,13,4,10,6,-1,91,77,52,0.00,40.00,11,5,30,0.00
2013-1-3,24,12,2,7,-3,-15,76,53,31,0.00,40.00,5,3,12,0.00
2013-1-4,44,22,12,12,-2,-12,55,37,15,0.00,40.00,5,2,10,0.01
2013-1-5,27,17,8,12,1,-9,71,50,30,0.00,40.00,7,3,11,0.01
2013-1-6,33,26,19,12,3,-4,52,37,22,0.00,40.00,18,10,29,0.00
2013-1-7,33,23,16,16,7,-1,77,50,32,0.00,40.00,13,7,24,0.00
2013-1-8,33,24,19,26,18,12,93,79,55,0.00,40.00,13,7,32,0.00
2013-1-9,41,30,21,21,17,9,94,61,33,0.00,40.00,16,11,29,0.00
2013-1-10,37,34,29,20,12,5,70,41,29,0.00,40.00,22,16,47,0.00
2013-1-11,29,10,-6,20,5,-10,96,81,62,0.00,40.00,16,7,33,0.00
2013-1-12,3,-4,-8,-2,-8,-12,82,81,78,0.00,40.00,4,2,13,0.00
2013-1-13,6,-3,-12,0,-8,-16,84,80,72,0.00,40.00,5,2,13,0.00
2013-1-14,2,-5,-11,-4,-10,-15,82,79,71,0.00,40.00,12,4,20,0.00
2013-1-15,17,6,-6,10,2,-10,89,81,63,0.00,40.00,8,4,18,0.00
2013-1-16,29,16,11,17,10,5,91,78,54,0.00,40.00,7,4,19,0.00
2013-1-17,33,22,13,16,9,-1,83,60,38,0.00,40.00,11,4,19,0.02
2013-1-18,35,25,18,16,8,1,62,48,32,0.00,40.00,13,6,22,0.02
2013-1-19,34,26,20,15,8,0,62,48,32,0.00,40.00,13,5,21,0.00
2013-1-20,33,24,16,16,10,5,79,56,36,0.00,40.00,15,4,25,0.00
2013-1-21,39,26,15,19,10,5,84,53,28,0.00,40.00,10,5,26,0.00
2013-1-22,39,29,19,15,6,-5,58,40,21,0.00,40.00,10,4,19,0.00
2013-1-23,42,34,28,9,3,-2,36,27,21,0.00,40.00,13,8,29,0.00
2013-1-24,37,33,29,31,20,7,99,63,31,0.00,40.00,18,9,34,0.00
2013-1-25,39,30,25,27,24,20,97,79,49,0.00,40.00,21,12,36,0.00
2013-1-26,41,33,27,30,26,20,93,74,59,0.00,40.00,13,7,26,0.00
2013-1-27,38,33,30,30,27,25,97,79,65,0.00,40.00,15,9,31,0.00
2013-1-28,31,23,10,30,21,8,99,94,79,0.00,40.00,8,3,26,0.00
2013-1-29,24,10,0,16,6,-2,92,84,55,0.00,40.00,17,4,26,0.00
2013-1-30,22,14,4,18,10,1,91,85,74,0.00,40.00,7,4,20,0.00
2013-1-31,38,25,18,25,19,15,95,79,49,0.00,40.00,8,4,21,0.01